• In Uzbekistan
  • List of Countries
  • For 7 days
  • Water Temperature
  • Satellite Maps
  • Weather Map
  • Weather Widgets
  • user-avatar
    Login

    Hourly Weather Linz

    Today, 24 March, Sunday

    Time Temperature Precipitation Wind Pressure Humidity
    00:00 +10°C° 0 mm 1 mps 740 mmHg 79%
    01:00 +9°C° 0 mm 1 mps 740 mmHg 77%
    02:00 +9°C° 0 mm 1 mps 739 mmHg 78%
    03:00 +8°C° 0 mm 1 mps 739 mmHg 79%
    04:00 +8°C° 0 mm 1 mps 739 mmHg 81%
    05:00 +8°C° 0 mm 1 mps 739 mmHg 81%
    06:00 +8°C° 0 mm 1 mps 739 mmHg 81%
    07:00 +8°C° 0 mm 1 mps 739 mmHg 81%
    08:00 +11°C° 0 mm 1 mps 738 mmHg 74%
    09:00 +12°C° 0 mm 0 mps 738 mmHg 66%
    10:00 +14°C° 0 mm 0 mps 738 mmHg 59%
    11:00 +16°C° 0 mm 1 mps 737 mmHg 55%
    12:00 +18°C° 0 mm 1 mps 737 mmHg 51%
    13:00 +19°C° 0 mm 1 mps 736 mmHg 47%
    14:00 +18°C° 0 mm 2 mps 736 mmHg 48%
    15:00 +18°C° 0 mm 2 mps 735 mmHg 49%
    16:00 +18°C° 0 mm 3 mps 735 mmHg 50%
    17:00 +16°C° 0 mm 2 mps 735 mmHg 57%
    18:00 +14°C° 0 mm 2 mps 735 mmHg 64%
    19:00 +13°C° 0 mm 2 mps 735 mmHg 71%
    20:00 +12°C° 0 mm 2 mps 735 mmHg 74%
    21:00 +12°C° 0 mm 2 mps 735 mmHg 77%
    22:00 +11°C° 0 mm 1 mps 736 mmHg 80%
    23:00 +10°C° 0.1 mm 2 mps 735 mmHg 82%

    Tomorrow, 25 March, Monday

    Time Temperature Precipitation Wind Pressure Humidity
    00:00 +10°C° 0.1 mm 3 mps 735 mmHg 84%
    01:00 +10°C° 0.1 mm 3 mps 735 mmHg 86%
    02:00 +10°C° 0.1 mm 3 mps 735 mmHg 86%
    03:00 +8°C° 0.1 mm 4 mps 735 mmHg 86%
    04:00 +7°C° 0.1 mm 4 mps 734 mmHg 86%
    05:00 +7°C° 0.2 mm 4 mps 734 mmHg 87%
    06:00 +8°C° 0.2 mm 3 mps 734 mmHg 87%
    07:00 +7°C° 0.2 mm 3 mps 734 mmHg 88%
    08:00 +7°C° 0.3 mm 4 mps 734 mmHg 84%
    09:00 +7°C° 0.3 mm 5 mps 734 mmHg 80%
    10:00 +8°C° 0.3 mm 6 mps 733 mmHg 76%
    11:00 +8°C° 0.1 mm 6 mps 733 mmHg 68%
    12:00 +8°C° 0.1 mm 7 mps 733 mmHg 60%
    13:00 +9°C° 0.1 mm 7 mps 733 mmHg 53%
    14:00 +8°C° 0.1 mm 7 mps 733 mmHg 54%
    15:00 +8°C° 0.1 mm 7 mps 733 mmHg 55%
    16:00 +6°C° 0.1 mm 7 mps 733 mmHg 57%
    17:00 +5°C° 0.1 mm 6 mps 734 mmHg 61%
    18:00 +5°C° 0.1 mm 5 mps 734 mmHg 65%
    19:00 +4°C° 0.1 mm 4 mps 735 mmHg 69%
    20:00 +3°C° 0 mm 4 mps 735 mmHg 70%
    21:00 +3°C° 0 mm 3 mps 736 mmHg 72%
    22:00 +2°C° 0 mm 3 mps 737 mmHg 73%
    23:00 +2°C° 0 mm 3 mps 737 mmHg 75%

    Day after tomorrow, 26 March, Tuesday

    Time Temperature Precipitation Wind Pressure Humidity
    00:00 +2°C° 0 mm 3 mps 738 mmHg 76%
    01:00 +1°C° 0 mm 3 mps 738 mmHg 78%
    02:00 +1°C° 0 mm 3 mps 739 mmHg 81%
    03:00 +1°C° 0 mm 2 mps 739 mmHg 84%
    04:00 +1°C° 0 mm 2 mps 739 mmHg 87%
    05:00 +1°C° 0 mm 2 mps 740 mmHg 86%
    06:00 +1°C° 0 mm 2 mps 741 mmHg 85%
    07:00 +1°C° 0 mm 2 mps 741 mmHg 84%
    08:00 +3°C° 0 mm 2 mps 741 mmHg 76%
    09:00 +4°C° 0 mm 2 mps 741 mmHg 69%
    10:00 +6°C° 0 mm 2 mps 742 mmHg 61%
    11:00 +7°C° 0 mm 3 mps 741 mmHg 58%
    12:00 +7°C° 0 mm 3 mps 741 mmHg 55%
    13:00 +8°C° 0 mm 3 mps 741 mmHg 52%
    14:00 +8°C° 0 mm 3 mps 741 mmHg 51%
    15:00 +9°C° 0 mm 3 mps 741 mmHg 50%
    16:00 +9°C° 0 mm 3 mps 740 mmHg 50%
    17:00 +8°C° 0 mm 3 mps 741 mmHg 55%
    18:00 +5°C° 0 mm 3 mps 741 mmHg 61%
    19:00 +4°C° 0 mm 3 mps 742 mmHg 67%
    20:00 +5°C° 0 mm 2 mps 742 mmHg 68%
    21:00 +5°C° 0 mm 2 mps 742 mmHg 68%
    22:00 +5°C° 0 mm 2 mps 743 mmHg 69%
    23:00 +4°C° 0 mm 2 mps 743 mmHg 70%

    27 March, Wednesday

    Time Temperature Precipitation Wind Pressure Humidity
    00:00 +5°C° 0 mm 1 mps 743 mmHg 71%
    01:00 +5°C° 0 mm 1 mps 743 mmHg 73%
    02:00 +5°C° 0 mm 1 mps 743 mmHg 74%
    03:00 +5°C° 0 mm 1 mps 743 mmHg 75%
    04:00 +4°C° 0 mm 0 mps 743 mmHg 76%
    05:00 +5°C° 0 mm 1 mps 743 mmHg 77%
    06:00 +5°C° 0 mm 1 mps 743 mmHg 79%
    07:00 +5°C° 0 mm 1 mps 743 mmHg 80%
    08:00 +5°C° 0 mm 2 mps 743 mmHg 75%
    09:00 +6°C° 0 mm 2 mps 743 mmHg 70%
    10:00 +7°C° 0 mm 2 mps 743 mmHg 65%
    11:00 +7°C° 0 mm 2 mps 743 mmHg 60%
    12:00 +8°C° 0 mm 2 mps 743 mmHg 56%
    13:00 +9°C° 0 mm 2 mps 743 mmHg 52%
    14:00 +9°C° 0 mm 2 mps 743 mmHg 52%
    15:00 +9°C° 0 mm 2 mps 742 mmHg 53%
    16:00 +9°C° 0 mm 2 mps 742 mmHg 53%
    17:00 +9°C° 0 mm 1 mps 743 mmHg 58%
    18:00 +9°C° 0 mm 1 mps 743 mmHg 63%
    19:00 +8°C° 0 mm 1 mps 743 mmHg 68%
    20:00 +8°C° 0 mm 1 mps 744 mmHg 70%
    21:00 +7°C° 0 mm 1 mps 744 mmHg 72%
    22:00 +7°C° 0 mm 1 mps 744 mmHg 75%
    23:00 +7°C° 0 mm 1 mps 744 mmHg 77%

    28 March, Thursday

    Time Temperature Precipitation Wind Pressure Humidity
    00:00 +6°C° 0 mm 1 mps 744 mmHg 79%
    01:00 +6°C° 0 mm 1 mps 744 mmHg 81%
    02:00 +5°C° 0 mm 1 mps 744 mmHg 83%
    03:00 +5°C° 0 mm 1 mps 744 mmHg 84%
    04:00 +4°C° 0 mm 1 mps 744 mmHg 86%
    05:00 +5°C° 0.2 mm 1 mps 744 mmHg 85%
    06:00 +5°C° 0.2 mm 1 mps 744 mmHg 85%
    07:00 +5°C° 0.2 mm 1 mps 744 mmHg 84%
    08:00 +6°C° 0.3 mm 1 mps 744 mmHg 82%
    09:00 +6°C° 0.3 mm 1 mps 744 mmHg 81%
    10:00 +7°C° 0.3 mm 1 mps 744 mmHg 79%
    11:00 +8°C° 0 mm 1 mps 744 mmHg 75%
    12:00 +10°C° 0 mm 1 mps 744 mmHg 71%
    13:00 +11°C° 0 mm 1 mps 743 mmHg 68%
    14:00 +12°C° 0 mm 1 mps 743 mmHg 65%
    15:00 +11°C° 0 mm 0 mps 743 mmHg 63%
    16:00 +11°C° 0 mm 0 mps 743 mmHg 61%
    17:00 +10°C° 0 mm 0 mps 743 mmHg 67%
    18:00 +8°C° 0 mm 0 mps 743 mmHg 73%
    19:00 +6°C° 0 mm 0 mps 743 mmHg 79%
    20:00 +6°C° 0 mm 0 mps 744 mmHg 81%
    21:00 +6°C° 0 mm 1 mps 744 mmHg 83%
    22:00 +6°C° 0 mm 1 mps 744 mmHg 85%
    23:00 +6°C° 0 mm 1 mps 744 mmHg 86%

    29 March, Friday

    Time Temperature Precipitation Wind Pressure Humidity
    00:00 +5°C° 0 mm 1 mps 744 mmHg 87%
    01:00 +5°C° 0 mm 1 mps 744 mmHg 88%
    02:00 +5°C° 0 mm 1 mps 744 mmHg 88%
    03:00 +4°C° 0 mm 1 mps 744 mmHg 89%
    04:00 +4°C° 0 mm 1 mps 744 mmHg 89%
    05:00 +4°C° 0 mm 1 mps 744 mmHg 88%
    06:00 +5°C° 0 mm 1 mps 744 mmHg 86%
    07:00 +5°C° 0 mm 1 mps 744 mmHg 85%
    08:00 +7°C° 0 mm 1 mps 744 mmHg 79%
    09:00 +8°C° 0 mm 2 mps 744 mmHg 72%
    10:00 +10°C° 0 mm 2 mps 744 mmHg 66%
    11:00 +12°C° 0 mm 2 mps 743 mmHg 62%
    12:00 +12°C° 0 mm 3 mps 743 mmHg 58%
    13:00 +13°C° 0 mm 3 mps 743 mmHg 54%
    14:00 +13°C° 0 mm 3 mps 742 mmHg 54%
    15:00 +13°C° 0 mm 3 mps 742 mmHg 54%
    16:00 +13°C° 0 mm 3 mps 741 mmHg 54%
    17:00 +11°C° 0 mm 3 mps 742 mmHg 61%
    18:00 +9°C° 0 mm 3 mps 742 mmHg 68%
    19:00 +8°C° 0 mm 2 mps 742 mmHg 75%
    20:00 +7°C° 0 mm 2 mps 742 mmHg 77%
    21:00 +6°C° 0 mm 2 mps 742 mmHg 79%
    22:00 +5°C° 0 mm 2 mps 742 mmHg 81%
    23:00 +5°C° 0 mm 2 mps 742 mmHg 82%
    Show more